Philadelphia, PA

4:31 AM EST on November 17, 2019 (GMT -0500)
Philadelphia International

Weather History for KPHL - October, 2019

Change the Weather History Date:

Sunday, October 20, 2019

  Actual Average Record
Temperature  
Mean Temperature 52 °F 56 °F  
Max Temperature 56 °F 65 °F 81 °F (2016)
Min Temperature 48 °F 47 °F 27 °F (1974)
Degree Days  
Heating Degree Days 13 9  
Month to date heating degree days 99 132  
Since 1 July heating degree days 101 170  
Cooling Degree Days 0 0  
Month to date cooling degree days 40 19  
Year to date cooling degree days 1610 1297  
Growing Degree Days 2 (Base 50)    
Moisture  
Dew Point 50 °F    
Average Humidity 85    
Maximum Humidity 93    
Minimum Humidity 77    
Precipitation  
Precipitation 0.51 in 0.10 in 2.72 in (1873)
Month to date precipitation 1.87 2.11  
Year to date precipitation 39.06 33.91  
Snow  
Snow 0.00 in 0.00 in 1.50 in (1940)
Month to date snowfall 0.0 0.0  
Since 1 July snowfall 0.0 0.0  
Since 1 September snowfall 0.0 0.0  
Snow Depth 0.00 in    
Sea Level Pressure  
Sea Level Pressure 29.98 in    
Wind  
Wind Speed 10 mph (NE)    
Max Wind Speed 20 mph    
Max Gust Speed 26 mph    
Visibility 7 miles    
Events Rain    
T = Trace of Precipitation, MM = Missing Value Source: NWS Daily Summary

Daily Weather History Graph

Daily Weather History Graph

Search for Another Location

Airport or City:

Astronomy

Oct. 20, 2019 Rise Set
Actual Time 7:16 AM EDT 6:14 PM EDT
Civil Twilight 6:48 AM EDT 6:41 PM EDT
Nautical Twilight 6:17 AM EDT 7:13 PM EDT
Astronomical Twilight 5:46 AM EDT 7:44 PM EDT
Moon 11:21 PM EDT (10/20) 1:41 PM EDT (10/20)
Length of Visible Light 11h 53m
Length of Day
10h 58m
Waning Gibbous, 59% of the Moon is Illuminated
Oct 20
Waning Gibbous
Oct 21
Last Quarter
Oct 27
New
Nov 4
First Quarter
Nov 12
Full

Hourly Weather History & Observations

Time (EDT) Temp. Dew Point Humidity Pressure Visibility Wind Dir Wind Speed Gust Speed Precip Events Conditions
12:54 AM 52.0 °F 46.0 °F 80% 30.04 in 10.0 mi Calm Calm - N/A   Overcast
1:54 AM 51.1 °F 45.0 °F 80% 30.04 in 10.0 mi Calm Calm - N/A   Mostly Cloudy
2:54 AM 50.0 °F 45.0 °F 83% 30.03 in 10.0 mi Calm Calm - N/A   Mostly Cloudy
3:54 AM 50.0 °F 46.0 °F 86% 30.00 in 10.0 mi East 3.5 mph - N/A   Scattered Clouds
4:54 AM 50.0 °F 45.0 °F 83% 30.00 in 10.0 mi NE 3.5 mph - N/A   Mostly Cloudy
5:54 AM 48.9 °F 45.0 °F 86% 29.99 in 10.0 mi NNE 5.8 mph - N/A   Overcast
6:54 AM 50.0 °F 45.0 °F 83% 30.01 in 9.0 mi NNE 3.5 mph - N/A   Overcast
7:54 AM 51.1 °F 46.9 °F 86% 30.02 in 10.0 mi NE 4.6 mph - N/A   Overcast
8:54 AM 53.1 °F 46.9 °F 80% 30.03 in 7.0 mi ENE 4.6 mph - 0.00 in Rain Light Rain
9:54 AM 54.0 °F 48.0 °F 80% 30.02 in 6.0 mi NE 5.8 mph - 0.00 in Rain Light Rain
10:15 AM 54.0 °F 48.0 °F 80% 30.02 in 8.0 mi NE 4.6 mph - 0.00 in Rain Light Rain
10:54 AM 55.0 °F 48.9 °F 80% 30.03 in 7.0 mi ENE 4.6 mph - 0.00 in Rain Light Rain
11:12 AM 55.0 °F 50.0 °F 83% 30.03 in 6.0 mi ENE 4.6 mph - 0.01 in Rain Light Rain
11:25 AM 55.0 °F 48.9 °F 80% 30.03 in 4.0 mi NE 6.9 mph - 0.01 in Rain Light Rain
11:54 AM 54.0 °F 50.0 °F 86% 30.04 in 4.0 mi NNE 5.8 mph - 0.04 in Rain Light Rain
12:14 PM 54.0 °F 50.0 °F 86% 30.03 in 2.0 mi NNE 6.9 mph - 0.03 in Rain Heavy Rain
12:42 PM 54.0 °F 52.0 °F 93% 30.01 in 4.0 mi NNE 6.9 mph - 0.10 in Rain Light Rain
12:54 PM 55.0 °F 52.0 °F 89% 30.01 in 3.0 mi NNE 9.2 mph - 0.11 in Rain Light Rain
1:34 PM 55.0 °F 52.0 °F 89% 29.98 in 4.0 mi NNE 9.2 mph - 0.04 in Rain Rain
1:54 PM 55.0 °F 52.0 °F 89% 29.97 in 4.0 mi NE 8.1 mph - 0.07 in Rain Rain
2:18 PM 55.0 °F 52.0 °F 89% 29.96 in 5.0 mi NE 10.4 mph - 0.03 in Rain Light Rain
2:54 PM 55.0 °F 52.0 °F 89% 29.94 in 5.0 mi NE 13.8 mph - 0.09 in Rain Rain
3:02 PM 55.0 °F 52.0 °F 89% 29.94 in 4.0 mi NE 12.7 mph - 0.01 in Rain Rain
3:54 PM 55.0 °F 52.0 °F 89% 29.94 in 4.0 mi NE 13.8 mph 20.7 mph 0.08 in Rain Rain
4:05 PM 55.0 °F 52.0 °F 89% 29.94 in 4.0 mi NE 12.7 mph 20.7 mph 0.01 in Rain Light Rain
4:49 PM 55.4 °F 51.8 °F 88% 29.92 in 4.0 mi NE 16.1 mph - 0.07 in Rain Rain
4:54 PM 55.9 °F 53.1 °F 90% 29.92 in 4.0 mi NE 18.4 mph 23.0 mph 0.08 in Rain Rain
5:04 PM 55.9 °F 53.1 °F 90% 29.93 in 5.0 mi NE 13.8 mph 23.0 mph 0.01 in Rain Light Rain
5:47 PM 55.0 °F 52.0 °F 89% 29.93 in 9.0 mi NE 15.0 mph 23.0 mph 0.01 in   Overcast
5:54 PM 55.0 °F 51.1 °F 86% 29.93 in 9.0 mi NNE 16.1 mph 21.9 mph 0.01 in   Overcast
6:54 PM 54.0 °F 51.1 °F 90% 29.94 in 9.0 mi NE 17.3 mph - 0.00 in   Overcast
7:54 PM 55.0 °F 50.0 °F 83% 29.94 in 9.0 mi NE 16.1 mph 25.3 mph N/A   Overcast
8:20 PM 55.0 °F 50.0 °F 83% 29.94 in 10.0 mi NE 15.0 mph - 0.00 in Rain Light Rain
8:54 PM 54.0 °F 50.0 °F 86% 29.95 in 10.0 mi NNE 16.1 mph - 0.00 in Rain Light Rain
8:59 PM 54.0 °F 50.0 °F 86% 29.95 in 7.0 mi NE 13.8 mph - 0.00 in Rain Light Rain
9:29 PM 53.1 °F 50.0 °F 89% 29.95 in 4.0 mi NE 11.5 mph - 0.01 in Rain Light Rain
9:41 PM 53.1 °F 50.0 °F 89% 29.95 in 2.5 mi NE 15.0 mph - 0.02 in Rain Light Rain
9:54 PM 53.1 °F 50.0 °F 89% 29.96 in 2.5 mi NNE 12.7 mph - 0.03 in Rain Light Rain
10:29 PM 53.1 °F 50.0 °F 89% 29.96 in 6.0 mi NE 13.8 mph - 0.00 in   Overcast
10:38 PM 53.1 °F 48.9 °F 86% 29.96 in 8.0 mi NNE 10.4 mph - 0.00 in   Overcast
10:47 PM 53.1 °F 48.9 °F 86% 29.96 in 10.0 mi NE 12.7 mph - 0.00 in   Overcast
10:54 PM 53.1 °F 48.9 °F 86% 29.96 in 10.0 mi NNE 13.8 mph - 0.00 in   Overcast
11:54 PM 53.1 °F 50.0 °F 89% 29.96 in 10.0 mi NNE 15.0 mph - N/A   Overcast